User: anonymous
Location: Oshawa
(43.9000°N, 78.8670°W)
Time: 08:06:03
(UTC-04:00)
Language:

CARTOSAT-1 - Orbit

View from above orbital plane
View from above orbital plane
View from above satellite
View from above satellite

Ground track
Ground track

The orbit data is extracted from the following two-line orbital elements,

1 28649U 05017A   14233.15341755  .00000336  00000-0  47233-4 0  5201
2 28649 097.8299 305.8860 0002846 098.8565 261.2982 14.83464060503123
Epoch (UTC): 21 August 2014 03:40:55
Eccentricity: 0.0002846
inclination: 97.8299°
perigee height: 616 km
apogee height: 620 km
right ascension of ascending node: 305.8860°
argument of perigee: 98.8565°
revolutions per day: 14.83464060
mean anomaly at epoch: 261.2982°
orbit number at epoch: 50312

The dashed part of the orbit path shows where the satellite is in the earth's shadow,  

DLR